#timestamp,LO_Frequency,Hit,StdDev 
1663531215.9,286047002.7,N
1663531235.7,286047000.0,N
1663531255.5,286047000.0,N
1663531275.4,286047002.7,N
1663531295.2,286047000.5,N
1663531315.1,286047000.1,N
1663531316.0,286047000.1,N
1663531335.8,286047000.1,N
1663531355.6,286046999.1,N
1663531375.5,286046999.5,N
1663531395.3,286047001.1,N
1663531415.1,286046998.2,N
1663531435.9,286046998.9,N
1663531455.7,286046996.7,N
1663531475.6,286046995.2,Y
1663531495.4,286046996.6,P
1663531515.2,286047000.9,N
1663531535.1,286047002.4,N
1663531536.0,286047002.4,N
1663531555.8,286047002.7,N
1663531605.7,286047000.9,E
1663531615.6,286047000.7,N
1663531635.4,286046999.6,P
1663531655.3,286046998.5,N
1663531675.1,286047000.4,N
1663531695.9,286047001.6,N
1663531715.7,286047002.0,N
1663531735.5,286047001.8,N
1663531755.4,286047002.6,N
1663531775.2,286047000.5,N
1663531795.0,286047001.1,N
1663531795.9,286047001.1,N
1663531815.8,286047000.8,N
1663531835.6,286047002.3,N
1663531855.5,286046998.5,N
1663531875.3,286046997.2,N
1663531895.1,286046997.4,N
1663531915.9,286046999.1,N
1663531935.7,286047001.1,N
1663531955.5,286047000.6,N
1663531975.4,286047000.9,N
1663531995.2,286046999.0,N
1663532015.1,286046999.9,N
1663532016.0,286046999.9,N
1663532035.8,286047001.2,N
1663532055.6,286047000.5,N
1663532075.5,286046998.7,N
1663532095.3,286046996.5,N
1663532115.1,286046998.0,N
1663532135.9,286046997.4,N
1663532155.7,286046996.6,N
1663532175.6,286046998.3,N
1663532195.4,286046998.3,N
1663532215.2,286047000.5,N
1663532235.1,286046999.1,N
1663532236.0,286046999.1,N
1663532255.8,286046998.9,N
1663532275.7,286046998.6,N
1663532295.5,286046998.9,N
1663532315.3,286046998.1,N
1663532335.2,286046998.4,N
1663532355.0,286046998.9,N
1663532355.9,286046998.9,N
1663532375.7,286046999.3,N
1663532395.6,286046998.5,N
1663532415.4,286047000.0,N
1663532435.3,286047000.5,N
1663532455.1,286047002.8,N
1663532456.0,286047002.8,N
1663532475.8,286047002.5,N
1663532495.7,286047001.9,N
1663532515.5,286047001.6,N
1663532535.3,286047004.0,N
1663532555.2,286047003.8,N
1663532575.0,286047000.5,N
1663532575.9,286047000.5,N
1663532595.8,286046998.1,N
1663532615.6,286047000.7,N
1663532635.4,286046999.9,N
1663532655.3,286047002.3,N
1663532675.1,286047000.5,N
1663532695.8,286047000.8,N
1663532715.7,286046999.7,N
1663532735.5,286046999.7,N
1663532755.4,286047000.2,N
1663532775.2,286047001.6,N
1663532825.1,286047000.8,E
1663532835.9,286046998.7,N
1663532855.7,286047000.9,P
1663532875.6,286046999.7,N
1663532895.4,286047000.1,N
1663532915.2,286047002.5,Y
1663532935.1,286047002.5,P
1663532936.0,286047002.5,N
1663532955.8,286047001.3,N
1663532975.7,286047003.1,N
1663532995.5,286047003.8,Y
1663533015.3,286047001.5,P
1663533035.2,286047000.3,N
1663533055.0,286047000.9,N
1663533055.9,286047000.9,N
1663533075.8,286046999.9,N
1663533095.6,286046999.8,N
1663533115.4,286047001.9,N
1663533135.3,286047001.8,N
1663533155.1,286047004.4,Y
1663533175.8,286047000.9,P
1663533195.7,286046999.5,P
1663533215.5,286046999.1,N
1663533235.4,286046999.2,N
1663533255.2,286046997.5,Y
1663533275.0,286046995.6,P
1663533275.9,286046995.6,N
1663533295.8,286046997.0,N
1663533315.6,286046997.8,N
1663533335.5,286046996.8,N
1663533355.3,286046997.5,N
1663533375.1,286046997.7,N
1663533395.9,286046997.3,N
1663533415.7,286046995.3,Y
1663533435.5,286047000.9,P
1663533455.4,286047000.5,N
1663533475.2,286046999.8,N
1663533495.1,286046999.7,N
1663533496.0,286046999.7,N
1663533515.8,286047000.4,N
1663533535.6,286046999.2,N
1663533555.5,286046999.0,N
1663533575.3,286047000.7,N
1663533595.1,286047000.3,N
1663533615.9,286047000.8,N
1663533635.7,286047000.9,N
1663533655.6,286047000.1,N
1663533675.4,286047002.8,N
1663533695.2,286047000.4,N
1663533715.1,286046999.8,N
1663533716.0,286046999.8,N
1663533735.8,286046998.4,N
1663533755.7,286046999.1,N
1663533775.5,286046998.5,N
1663533795.3,286046999.8,N
1663533815.2,286047002.8,N
1663533835.9,286047001.0,N
1663533855.7,286047002.3,N
1663533875.6,286047001.9,N
1663533895.4,286047002.0,N
1663533915.3,286047000.5,N
1663533935.1,286046998.8,N
1663533936.0,286046998.8,N
1663533955.8,286046998.1,N
1663533975.7,286047000.2,N
1663533995.5,286047002.5,N
1663534015.3,286047002.5,N
1663534035.2,286047002.7,N
1663534055.0,286047002.5,N
1663534055.9,286047002.5,N
1663534075.8,286047004.1,N
1663534095.6,286047002.7,N
1663534115.4,286047000.8,N
1663534135.3,286047000.6,N
1663534155.1,286047002.4,N
1663534175.9,286047002.8,N
1663534195.7,286047000.0,N
1663534215.5,286047000.7,N
1663534235.4,286047000.7,N
1663534255.2,286046999.7,N
1663534275.0,286047002.5,N
1663534275.9,286047002.5,N
1663534295.8,286047001.0,N
1663534315.6,286047000.4,N
1663534335.5,286047002.8,N
1663534355.3,286047002.7,N
1663534375.1,286047002.2,N
1663534395.9,286047004.0,N
1663534415.7,286047004.3,N
1663534435.6,286047000.4,N
1663534455.4,286046999.8,N
1663534475.2,286046999.8,N
1663534495.1,286047000.3,N
1663534496.0,286047000.3,N
1663534515.8,286047001.2,N
1663534535.7,286046999.3,N
1663534555.5,286046999.6,N
1663534575.3,286046995.0,Y
1663534595.2,286046993.3,P
1663534615.0,286046994.2,N
1663534615.9,286046994.2,N
1663534635.7,286046996.0,N
1663534655.6,286046995.2,N
1663534675.4,286046997.6,N
1663534695.3,286046997.6,N
1663534715.1,286046998.6,N
1663534716.0,286046998.6,N
1663534735.8,286046999.9,N
1663534755.7,286047002.2,N
1663534775.5,286047002.2,N
1663534795.3,286047001.8,N
